Regional Weather Roundup
Issued by NWS

Home | Current Version | Previous Version | Graphics & Text | Print | Product List | Glossary On
Versions: 1 2 3 4 5 6 7 8 9 10 11 12 13 14 15 16 17 18 19 20 21 22 23 24 25 26 27 28 29 30 31 32 33 34 35 36 37 38 39 40 41 42 43 44 45 46 47 48 49 50
000
ASUS43 KLMK 261802
RWRKY
KENTUCKY REGIONAL WEATHER ROUNDUP
NATIONAL WEATHER SERVICE LOUISVILLE KY
200 PM EDT SUN MAR 26 2017

NOTE "FAIR" INDICATES FEW OR NO CLOUDS BELOW 12,000 FEET
WITH NO SIGNIFICANT WEATHER AND/OR OBSTRUCTIONS TO VISIBILITY.

KYZ001>023-026-027-061>063-070>075-261900-
WESTERN AND SOUTH CENTRAL KENTUCKY

CITY           SKY/WX    TMP DP  RH WIND       PRES   REMARKS
PADUCAH        PTSUNNY   61  49  64 W18       29.95S
HENDERSON      CLOUDY    61  54  77 W14       29.92F
OWENSBORO      CLOUDY    66  56  70 S17       29.92F
HOPKINSVILLE   PTSUNNY   65  56  73 SW14      29.96F
BOWLING GREEN  CLOUDY    68  56  65 SW15      29.97F
GLASGOW        NOT AVBL
$$

KYZ024-025-028>034-038-045-046-053-261900-
NORTH CENTRAL KENTUCKY

CITY           SKY/WX    TMP DP  RH WIND       PRES   REMARKS
LOUISVILLE/SDF PTSUNNY   68  53  58 S14G21    29.93F
LOUISVILLE/LOU PTSUNNY   67  53  61 SW9       29.94F
FORT KNOX      PTSUNNY   65  56  72 SW10      29.93F
$$

KYZ035>037-039>044-047>052-055>060-089>105-261900-
NORTHEAST KENTUCKY

CITY           SKY/WX    TMP DP  RH WIND       PRES   REMARKS
LEXINGTON      CLOUDY    66  55  67 SW16      29.98F
COVINGTON      CLOUDY    62  58  86 S9        29.95F
FRANKFORT      CLOUDY    67  56  67 S12       29.95F
$$

KYZ054-064>069-076>088-106>120-261900-
SOUTHEAST KENTUCKY

CITY           SKY/WX    TMP DP  RH WIND       PRES   REMARKS
JACKSON        CLOUDY    67  53  61 VRB7G21   30.00F
LONDON         LGT RAIN  62  57  83 S8        30.02S
SOMERSET       NOT AVBL
MIDDLESBORO    CLOUDY    65  58  79 SW5       30.04F
MONTICELLO     LGT RAIN  60  58  92 SW15      30.04F
$$





USA.gov is the U.S. government's official web portal to all federal, state and local government web resources and services.